Uitslag Haventriatlon top 3

# Naam Totaal
1 Swolfs Sanne 00:55:21 85.52
2 Vantorre Bart 00:55:33 84.14
3 Patteeuw Brent 00:55:38 84.06
4 Vanparrys Jano 00:56:15 83.50
5 Boussy Frederik 00:56:34 83.21
6 Bouckaert Mathieu 00:56:42 83.08
7 Devloo-casier Kjell 00:56:48 82.99
8 Claeys Lorenz 00:56:56 82.87
9 Vanwalleghem Stan 00:57:23 82.46
10 Uyttersprot Dieter 00:57:40 82.20
11 Brackx Brecht 00:57:59 81.91
12 Robaey Nick 00:58:21 81.57
13 Van Hoornick Tim 00:58:53 81.09
14 gailliaert steven 00:59:10 80.83
15 Thai-thuc Yann 01:00:51 79.29
16 Florussen Dennis 01:00:57 79.19
17 Van Dromme Maarten 01:01:18 78.87
18 Mortelmans Karel 01:01:19 78.86
19 Claeys ALexander 01:01:22 78.81
20 Dryepondt Peter 01:02:00 78.23
21 Knockaert Tobias 01:02:13 78.03
22 Van Haverbeke Arno 01:02:22 77.90
23 Bauwens Nils 01:02:26 77.84
24 Van Den Broeck Herman 01:02:41 77.61
25 Declerck Jan 01:02:44 77.56
26 Hauspie Steve 01:02:50 77.47
27 De Block Dries 01:03:00 77.32
28 Debaeke Jelmer 01:03:06 77.23
29 Haeghebaert Robin 01:03:25 76.94
30 Blomme Chris 01:03:28 76.89
31 Van Der Meulen Marco 01:03:32 76.83
32 Bluekens Jorne 01:03:38 76.74
33 De Witte Eskill 01:03:49 76.57
34 Calebout Stefan 01:03:51 76.54
35 Cumps Niel 01:04:08 76.28
36 Van De Velde Stieven 01:04:12 76.22
37 De Backer Mattias 01:04:13 76.20
38 Lamote Dimitri 01:04:21 76.08
39 Pistolesi Sebastiano 01:04:23 76.05
40 Van Ophem Jeremy 01:04:31 75.93
41 Beuselinck Glenn 01:04:33 75.90
42 Naessens Seppe 01:04:47 75.68
43 Thys Thomas 01:04:51 75.62
44 Bilaey Tobias 01:04:58 75.52
45 Degeeter Steven 01:05:14 75.27
46 Claeys Yves 01:05:25 75.10
47 Vanhopplinus Stefaan 01:05:36 74.94
48 Verburgh Patrick 01:05:49 74.74
49 Tanghe Stefaan 01:05:56 74.63
50 Lagast Peter 01:06:00 74.57
51 Hens Jan 01:06:11 74.40
52 Vanleenhove Frank 01:06:26 74.17
53 Vanbelle Tim 01:06:35 74.04
54 Van Genechten Wouter 01:06:46 73.87
55 Geldhof Wesley 01:07:05 73.58
56 Scheerlinck Lodewijk 01:07:08 73.53
57 Marreyt Chris 01:07:17 73.40
58 Hoste Bastien 01:07:22 73.32
59 Dejaeghere Jimmy 01:07:32 73.17
60 Devriendt Bjorn 01:07:35 73.12
61 Lannoy Kenny 01:07:38 73.08
62 Vandelook Koen 01:07:52 72.86
63 Huys Danny 01:07:55 72.82
64 Vandecasteele Manu 01:08:04 72.68
65 Bailliu Bjorn 01:08:04 72.68
66 Karel D'hont 01:08:05 72.66
67 Gillegot-vergauwen Pieter 01:08:13 72.54
68 Vanrysselberghe Philippe 01:08:19 72.45
69 Geldof Barthelemy 01:08:20 72.43
70 Verbeke Grace 01:08:20 70.54
71 Bouckaert Peter 01:08:29 72.30
72 Pieters Jeroom 01:08:38 72.16
73 Lierman Peter 01:08:50 71.98
74 Vanderstraeten Jan 01:08:51 71.96
75 Bogaert Ellen 01:08:57 68.96
76 Kerckhove Koen 01:09:01 71.81
77 Klaas Thys 01:09:03 71.78
78 Waeterschoot Nick 01:09:14 71.61
79 Bottelier Yara 01:09:19 68.73
80 Thibout Jean-marc 01:09:25 71.44
81 Lecoutere Maarten 01:09:52 71.03
82 Foré Peter 01:09:56 70.97
83 Tempelaere Brecht 01:09:57 70.95
84 Serruys Kevin 01:10:10 68.21
85 Dewaele Didier 01:10:17 70.65
86 Ghyssaert Thibaud 01:10:18 70.63
87 Danneels Jacques 01:10:30 70.45
88 Baertsoen Patrik 01:10:31 70.44
89 Deeren Jan 01:10:33 70.41
90 Devreese Ignace 01:10:38 70.33
91 Demey Koen 01:10:45 70.22
92 Ferket Bruno 01:11:17 69.73
93 Gabriels Thierry 01:11:32 69.51
94 De Schepper Basiel 01:11:40 69.38
95 Bergsma Benno 01:11:41 69.37
96 Vandenbussche Wim 01:11:42 69.35
97 De Vos Joris 01:11:44 69.32
98 Bossant Nick 01:11:53 69.18
99 Standaert Robbie 01:11:55 69.15
100 Defever Stefaan 01:11:56 69.14
101 Vanhove Anthony 01:11:58 69.11
102 Goris Yves 01:11:58 69.11
103 Ampe Jonathan 01:11:59 69.09
104 Jaques Joakim 01:12:03 69.03
105 Van Hamme Kurt 01:12:12 68.90
106 Van Ryckeghem Guy 01:12:13 68.88
107 Gantois Mathias 01:12:33 68.57
108 Vandermeersch Margot 01:12:33 66.74
109 Van Craen Tom 01:12:40 68.47
110 De Vleeschauwer Dimitri 01:12:43 68.42
111 Demoor Kevin 01:12:45 68.39
112 Langenbick Johan 01:12:46 68.38
113 Vander Plaetse Pieter 01:12:56 68.22
114 Vandamme Eveline 01:12:58 66.48
115 Compernolle Bert 01:13:01 68.15
116 Baeteman Benedicte 01:13:02 66.44
117 Van Ooteghem Wouter 01:13:05 68.09
118 Verbanck Thibaut 01:13:06 68.07
119 Tiebackx Patrick 01:13:08 68.04
120 Roels Bernard 01:13:16 67.92
121 De Loof Joyce 01:13:29 66.16
122 Van Schoors Kurt 01:13:41 67.54
123 Leyzen Dennis 01:13:45 67.48
124 Vermeiren Vadim 01:13:53 67.35
125 Standaert Ruben 01:14:04 67.19
126 Buyle Christophe 01:14:17 66.99
127 Verhelst Christof 01:14:24 66.88
128 Verschaetse Geert 01:14:28 66.82
129 Demeyer Koen 01:14:32 66.76
130 Senaeve Pieterjan 01:14:33 66.74
131 Vlamijnck Yves 01:14:36 66.70
132 DE GROOTE Dominiek 01:14:38 66.67
133 Lauwers Nick 01:14:42 66.61
134 Dewaele Filip 01:14:48 66.51
135 Debusschere Kevin 01:14:50 66.48
136 Van Hende Iwan 01:14:51 66.47
137 Talloen Bart 01:14:55 66.41
138 Laruelle Jürgen 01:15:17 66.07
139 Lievens Frederic 01:15:17 66.07
140 Psa De Muynck Luc 01:15:20 66.03
141 Bullynck Nick 01:15:26 65.94
142 Bertier Gerrit 01:15:26 65.94
143 Schotte Christophe 01:15:34 65.81
144 Genbrugge Jeroen 01:15:39 65.74
145 De Meyer Peter 01:15:43 65.68
146 Luttens Wouter 01:15:46 65.63
147 Schmidt Bill 01:15:51 65.55
148 Dorlandt Koen 01:15:56 65.48
149 Neyt Sara 01:16:06 64.54
150 Dils Jurgen 01:16:07 65.31
151 Cuypers Nick 01:16:33 64.91
152 Van Biesen Andy 01:16:41 64.79
153 Vandierendonck Sammy 01:16:48 64.68
154 Van Den Broeck Alain 01:16:53 64.61
155 Clarys Barbara 01:17:01 63.98
156 De Beule Dirk 01:17:05 64.42
157 Haeck Margot 01:17:16 63.82
158 Nelis Kristof 01:17:37 63.94
159 Tavernier Simon 01:17:39 63.91
160 Clauwaert Thierry 01:17:41 63.88
161 Van De Velde Ruben 01:17:45 63.81
162 Defruyt Jurgen 01:17:53 63.69
163 Peeters Christof 01:17:53 63.69
164 De Wolf Glen 01:17:54 63.68
165 Tanghe Filip 01:17:57 63.63
166 Mortier Saskia 01:17:57 63.40
167 Velghe Jo 01:18:06 63.49
168 Gille-turin Arthur 01:18:14 63.37
169 Delodder Emelie 01:18:21 63.16
170 Van De Keere Stefan 01:18:36 63.04
171 Cauwels Bart 01:18:40 62.98
172 Snick Eric 01:18:51 62.81
173 Verlinde Dirk 01:19:00 62.67
174 Vanhaecke Niels 01:19:05 62.59
175 Vanroose Jonas 01:19:06 62.58
176 Van Hove Philip 01:19:24 62.30
177 Gaudesaboos Tom 01:19:30 62.21
178 Evrard Pierre 01:19:34 62.15
179 Vandemeulebroucke Thomas 01:19:39 62.08
180 Boydens Ingrid 01:19:52 62.22
181 De Clerck Vicky 01:20:00 62.14
182 Yoeri Viaene 01:20:25 61.37
183 Blyweert Wim 01:20:27 61.34
184 Tanaka Dominique 01:20:31 61.28
185 Vergison Tom 01:20:45 61.07
186 Moortgat Frederik 01:20:53 60.95
187 Danneels Jill 01:20:55 61.57
188 Depaepe Olbren 01:21:03 60.79
189 De Ruyter Frederik 01:21:23 60.49
190 Verhaeven Eva 01:21:40 61.11
191 Slee Peter 01:21:43 60.18
192 Vandecasteele Nico 01:22:01 59.91
193 Psa Ryckaert Daniël 01:22:03 59.88
194 Verbeke Chris 01:22:08 59.80
195 Gaudesaboos Kristof 01:22:22 59.59
196 Davit Katelijne 01:22:24 60.65
197 Vandermeersch Carine 01:22:27 59.51
198 De Laat Rene 01:22:36 59.37
199 De Buck Caroline 01:22:42 60.47
200 De Cuyper Inge 01:22:54 60.35
201 Lecoutere Katrijn 01:23:01 60.27
202 Gouwy Eline 01:23:19 60.09
203 Bruynooghe Nikita 01:23:46 58.31
204 Vergauwe Sien 01:23:49 59.78
205 Jonckheere Greet 01:24:34 59.32
206 De Kruijk Gerard 01:24:38 57.51
207 Steelandt Ellen 01:24:45 59.20
208 Steen Daisy 01:24:49 59.16
209 Van Dromme Martin 01:25:07 57.07
210 Van Lersberghe Patsy 01:25:17 58.87
211 Huys Mieke 01:25:20 58.84
212 Lemahieu Valérie 01:26:10 58.33
213 Daese Jeroen 01:26:27 55.85
214 Naveau Vicky 01:26:44 57.98
215 Lahti Laura 01:26:51 57.91
216 Van Eeghem Pascale 01:27:42 57.38
217 Skrbkova Alena 01:27:56 57.24
218 Maertens Steve 01:28:01 54.42
219 Storm Pascal 01:28:14 54.22
220 Landuyt Nathalie 01:28:19 57.00
221 De Groote Luc 01:28:56 53.58
222 De Kezel Els 01:28:56 56.62
223 Maertens Julie 01:29:02 56.56
224 Compernolle Tom 01:29:03 53.47
225 Gheselle Lindsay 01:29:03 56.55
226 Jacobs Guy 01:29:15 53.29
227 Cal Serap 01:29:22 56.35
228 Laridon Krista 01:29:42 56.15
229 Van Wijk Nico 01:30:01 52.59
230 Desmet David 01:30:12 52.42
231 Nicolay Bram 01:30:39 52.01
232 Kwanten Wendy 01:31:14 55.20
233 Eligius Stefanie 01:31:42 54.91
234 Werbrouck Jan 01:31:43 51.03
235 Degraeve Eveline 01:32:01 54.72
236 RappÉ Greetje 01:32:07 54.65
237 Anthonis Erik 01:32:08 50.65
238 Deloof Kenny 01:33:23 49.50
239 Desutter Valérie 01:33:28 53.82
240 Bilteryst Kurt 01:33:31 49.38
241 Haghedooren Ingeborgh 01:33:32 53.78
242 Matthijs Sabine 01:33:38 53.72
243 De Meester Matthijs 01:34:57 48.07
244 Vandaele Evelien 01:36:00 52.26
245 Heyvaert Peter 01:36:10 46.96
246 Naeye Nadia 01:36:12 52.13
247 Dumon Johanna 01:36:30 51.95
248 D''hoore Veerle 01:36:41 51.83
249 Jacxsens Liesbeth 01:36:41 51.83
250 Vlietinck Antoine 01:36:52 46.31
251 Bogaert Stephanie 01:37:24 51.39
252 Dekyndt Katie 01:38:04 50.98
253 Boisbouvier Laure 01:39:31 50.09
254 Dezutter Jimmy 01:42:29 41.17
255 Bierman Valerie 01:43:55 47.37
256 Benoot Mariska 01:44:51 46.79
257 Smet Roland 01:44:56 38.43
258 Camozu Bahar 01:56:06 39.85
259 Camozu Pinar 02:01:01 36.31

Reacties

  • Nog geen reacties beschikbaar